(°C)
10°
11°
13°
14°
16°
(°C)
10°
11°
12°
JZ
JJZ
JJZ
JZ
ZJZ
Z
ZJZ
(km/h)
9-13
9-13
9-13
10-15
10-18
14-22
15-26
(mm)
0
0
0
0
0
0
0
(%)
0
0
0
0
0
0
0

Výška Slnka nad obzorom

/ -10.7°
sun-icon
UV 4
04:53
21:07
Zmenšujúci sa polmesiac (247°)
23:15
11:11

Správy METAR pre lokalitu 55.31°S 61.5°V (USCC)

Čas Podmienky Teplota/
Rosný bod
Vietor Viditeľnosť Počasie Oblaky Tlak Zmeniť Nespracované
VFR 9°C / 7°C 260º 8kt >10km - Clouds and Visibility OK 1012 No Significant change USCC 282200Z 26004MPS CAVOK 09/07 Q1012 R27/000060 NOSIG RMK QFE739
VFR 9°C / 6°C 270º 8kt >10km - Clouds and Visibility OK 1012 No Significant change USCC 282130Z 27004MPS CAVOK 09/06 Q1012 R27/000060 NOSIG RMK QFE739
VFR 10°C / 7°C 260º 8kt >10km - Clouds and Visibility OK 1012 No Significant change USCC 282100Z 26004MPS CAVOK 10/07 Q1012 R27/000060 NOSIG RMK QFE739
VFR 9°C / 7°C 270º 8kt >10km - Clouds and Visibility OK 1012 No Significant change USCC 282030Z 27004MPS CAVOK 09/07 Q1012 R27/000060 NOSIG RMK QFE739
VFR 9°C / 6°C 260º 8kt >10km - Clouds and Visibility OK 1012 No Significant change USCC 282000Z 26004MPS CAVOK 09/06 Q1012 R27/000060 NOSIG RMK QFE739
VFR 9°C / 7°C 260º 8kt >10km - Clouds and Visibility OK 1012 No Significant change USCC 281930Z 26004MPS CAVOK 09/07 Q1012 R27/000060 NOSIG RMK QFE739
VFR 8°C / 6°C 270º 6kt >10km - Clouds and Visibility OK 1012 No Significant change USCC 281900Z 27003MPS CAVOK 08/06 Q1012 R27/000060 NOSIG RMK QFE739
VFR 9°C / 7°C 280º 8kt >10km - Clouds and Visibility OK 1012 No Significant change USCC 281830Z 28004MPS CAVOK 09/07 Q1012 R27/000060 NOSIG RMK QFE739
VFR 10°C / 7°C 270º 8kt >10km - Clouds and Visibility OK 1012 No Significant change USCC 281800Z 27004MPS CAVOK 10/07 Q1012 R27/000060 NOSIG RMK QFE739
VFR 12°C / 7°C 260º 8kt >10km - Clouds and Visibility OK 1012 No Significant change USCC 281730Z 26004MPS CAVOK 12/07 Q1012 R27/000060 NOSIG RMK QFE739
VFR 11°C / 7°C 230º 6kt >10km - Clouds and Visibility OK 1012 No Significant change USCC 281700Z 23003MPS CAVOK 11/07 Q1012 R27/000060 NOSIG RMK QFE739
VFR 12°C / 7°C 270º 4kt >10km - Few Clouds 4000ft 1012 No Significant change USCC 281630Z 27002MPS 9999 FEW040CB 12/07 Q1012 R27/000060 NOSIG RMK QFE739
VFR 12°C / 7°C 310º 4kt >10km - Few Clouds 4000ft 1011 No Significant change USCC 281600Z 31002MPS 9999 FEW040CB 12/07 Q1011 R27/000060 NOSIG RMK QFE739
VFR 14°C / 7°C 300º 4kt >10km - Scattered Clouds 4000ft 1011 No Significant change USCC 281530Z 30002MPS 9999 SCT040CB 14/07 Q1011 R27/000060 NOSIG RMK QFE738
VFR 16°C / 7°C 320º 6kt >10km - Scattered Clouds 4000ft 1011 No Significant change USCC 281500Z 32003MPS 9999 SCT040CB 16/07 Q1011 R27/000060 NOSIG RMK QFE738
VFR 17°C / 7°C 310º 8kt >10km - Scattered Clouds 4000ft 1011 No Significant change USCC 281430Z 31004MPS 9999 SCT040CB 17/07 Q1011 R27/000060 NOSIG RMK QFE738
VFR 17°C / 7°C 330º 10kt >10km - Scattered Clouds 4000ft 1010 No Significant change USCC 281400Z 33005MPS 9999 SCT040CB 17/07 Q1010 R27/000060 NOSIG RMK QFE738
VFR 17°C / 7°C 320º 12kt >10km - Scattered Clouds 4000ft 1010 No Significant change USCC 281330Z 32006MPS 9999 SCT040CB 17/07 Q1010 R27/000060 NOSIG RMK QFE738
VFR 18°C / 7°C 320º 12kt >10km - Scattered Clouds 4000ft 1010 No Significant change USCC 281300Z 32006MPS 9999 SCT040CB 18/07 Q1010 R27/000060 NOSIG RMK QFE738
VFR 17°C / 6°C 320º 14kt >10km - Scattered Clouds 3000ft 1010 No Significant change USCC 281230Z 32007MPS 9999 SCT030CB 17/06 Q1010 R27/000060 NOSIG RMK QFE738
VFR 19°C / 6°C 320º 12kt >10km - Scattered Clouds 3000ft 1010 No Significant change USCC 281200Z 32006MPS 9999 SCT030CB 19/06 Q1010 R27/000060 NOSIG RMK QFE737
VFR 19°C / 5°C 300º 16kt >10km - Scattered Clouds 3000ft 1010 No Significant change. Runway 27: Wet or puddles, 51-100% contamination with <1mm, friction coefficient 0.50. USCC 281130Z 30008MPS 9999 SCT030CB 19/05 Q1010 R27/290050 NOSIG RMK QFE738
VFR 19°C / 6°C 300º 12kt Gust 21kt >10km - Scattered Clouds 3000ft 1010 No Significant change. Runway 27: Wet or puddles, 51-100% contamination with <1mm, friction coefficient 0.50. USCC 281100Z 30006G11MPS 9999 SCT030CB 19/06 Q1010 R27/290050 NOSIG RMK QFE738
VFR 16°C / 8°C 290º variable 250º to 330º 8kt >10km - Scattered Clouds 3000ft 1010 No Significant change. Runway 27: Wet or puddles, 51-100% contamination with <1mm, friction coefficient 0.50. USCC 281030Z 29004MPS 250V330 9999 SCT030CB 16/08 Q1010 R27/290050 NOSIG RMK QFE738

VFR

9°C / 7°C

[Viac]
Vietor 260º 8kt
Viditeľnosť >10km
Počasie -
Oblaky Clouds and Visibility OK
Tlak 1012
Zmeniť No Significant change
Nespracované USCC 282200Z 26004MPS CAVOK 09/07 Q1012 R27/000060 NOSIG RMK QFE739

VFR

9°C / 6°C

[Viac]
Vietor 270º 8kt
Viditeľnosť >10km
Počasie -
Oblaky Clouds and Visibility OK
Tlak 1012
Zmeniť No Significant change
Nespracované USCC 282130Z 27004MPS CAVOK 09/06 Q1012 R27/000060 NOSIG RMK QFE739

VFR

10°C / 7°C

[Viac]
Vietor 260º 8kt
Viditeľnosť >10km
Počasie -
Oblaky Clouds and Visibility OK
Tlak 1012
Zmeniť No Significant change
Nespracované USCC 282100Z 26004MPS CAVOK 10/07 Q1012 R27/000060 NOSIG RMK QFE739

VFR

9°C / 7°C

[Viac]
Vietor 270º 8kt
Viditeľnosť >10km
Počasie -
Oblaky Clouds and Visibility OK
Tlak 1012
Zmeniť No Significant change
Nespracované USCC 282030Z 27004MPS CAVOK 09/07 Q1012 R27/000060 NOSIG RMK QFE739

VFR

9°C / 6°C

[Viac]
Vietor 260º 8kt
Viditeľnosť >10km
Počasie -
Oblaky Clouds and Visibility OK
Tlak 1012
Zmeniť No Significant change
Nespracované USCC 282000Z 26004MPS CAVOK 09/06 Q1012 R27/000060 NOSIG RMK QFE739

VFR

9°C / 7°C

[Viac]
Vietor 260º 8kt
Viditeľnosť >10km
Počasie -
Oblaky Clouds and Visibility OK
Tlak 1012
Zmeniť No Significant change
Nespracované USCC 281930Z 26004MPS CAVOK 09/07 Q1012 R27/000060 NOSIG RMK QFE739

VFR

8°C / 6°C

[Viac]
Vietor 270º 6kt
Viditeľnosť >10km
Počasie -
Oblaky Clouds and Visibility OK
Tlak 1012
Zmeniť No Significant change
Nespracované USCC 281900Z 27003MPS CAVOK 08/06 Q1012 R27/000060 NOSIG RMK QFE739

VFR

9°C / 7°C

[Viac]
Vietor 280º 8kt
Viditeľnosť >10km
Počasie -
Oblaky Clouds and Visibility OK
Tlak 1012
Zmeniť No Significant change
Nespracované USCC 281830Z 28004MPS CAVOK 09/07 Q1012 R27/000060 NOSIG RMK QFE739

VFR

10°C / 7°C

[Viac]
Vietor 270º 8kt
Viditeľnosť >10km
Počasie -
Oblaky Clouds and Visibility OK
Tlak 1012
Zmeniť No Significant change
Nespracované USCC 281800Z 27004MPS CAVOK 10/07 Q1012 R27/000060 NOSIG RMK QFE739

VFR

12°C / 7°C

[Viac]
Vietor 260º 8kt
Viditeľnosť >10km
Počasie -
Oblaky Clouds and Visibility OK
Tlak 1012
Zmeniť No Significant change
Nespracované USCC 281730Z 26004MPS CAVOK 12/07 Q1012 R27/000060 NOSIG RMK QFE739

VFR

11°C / 7°C

[Viac]
Vietor 230º 6kt
Viditeľnosť >10km
Počasie -
Oblaky Clouds and Visibility OK
Tlak 1012
Zmeniť No Significant change
Nespracované USCC 281700Z 23003MPS CAVOK 11/07 Q1012 R27/000060 NOSIG RMK QFE739

VFR

12°C / 7°C

[Viac]
Vietor 270º 4kt
Viditeľnosť >10km
Počasie -
Oblaky Few Clouds 4000ft
Tlak 1012
Zmeniť No Significant change
Nespracované USCC 281630Z 27002MPS 9999 FEW040CB 12/07 Q1012 R27/000060 NOSIG RMK QFE739

VFR

12°C / 7°C

[Viac]
Vietor 310º 4kt
Viditeľnosť >10km
Počasie -
Oblaky Few Clouds 4000ft
Tlak 1011
Zmeniť No Significant change
Nespracované USCC 281600Z 31002MPS 9999 FEW040CB 12/07 Q1011 R27/000060 NOSIG RMK QFE739

VFR

14°C / 7°C

[Viac]
Vietor 300º 4kt
Viditeľnosť >10km
Počasie -
Oblaky Scattered Clouds 4000ft
Tlak 1011
Zmeniť No Significant change
Nespracované USCC 281530Z 30002MPS 9999 SCT040CB 14/07 Q1011 R27/000060 NOSIG RMK QFE738

VFR

16°C / 7°C

[Viac]
Vietor 320º 6kt
Viditeľnosť >10km
Počasie -
Oblaky Scattered Clouds 4000ft
Tlak 1011
Zmeniť No Significant change
Nespracované USCC 281500Z 32003MPS 9999 SCT040CB 16/07 Q1011 R27/000060 NOSIG RMK QFE738

VFR

17°C / 7°C

[Viac]
Vietor 310º 8kt
Viditeľnosť >10km
Počasie -
Oblaky Scattered Clouds 4000ft
Tlak 1011
Zmeniť No Significant change
Nespracované USCC 281430Z 31004MPS 9999 SCT040CB 17/07 Q1011 R27/000060 NOSIG RMK QFE738

VFR

17°C / 7°C

[Viac]
Vietor 330º 10kt
Viditeľnosť >10km
Počasie -
Oblaky Scattered Clouds 4000ft
Tlak 1010
Zmeniť No Significant change
Nespracované USCC 281400Z 33005MPS 9999 SCT040CB 17/07 Q1010 R27/000060 NOSIG RMK QFE738

VFR

17°C / 7°C

[Viac]
Vietor 320º 12kt
Viditeľnosť >10km
Počasie -
Oblaky Scattered Clouds 4000ft
Tlak 1010
Zmeniť No Significant change
Nespracované USCC 281330Z 32006MPS 9999 SCT040CB 17/07 Q1010 R27/000060 NOSIG RMK QFE738

VFR

18°C / 7°C

[Viac]
Vietor 320º 12kt
Viditeľnosť >10km
Počasie -
Oblaky Scattered Clouds 4000ft
Tlak 1010
Zmeniť No Significant change
Nespracované USCC 281300Z 32006MPS 9999 SCT040CB 18/07 Q1010 R27/000060 NOSIG RMK QFE738

VFR

17°C / 6°C

[Viac]
Vietor 320º 14kt
Viditeľnosť >10km
Počasie -
Oblaky Scattered Clouds 3000ft
Tlak 1010
Zmeniť No Significant change
Nespracované USCC 281230Z 32007MPS 9999 SCT030CB 17/06 Q1010 R27/000060 NOSIG RMK QFE738

VFR

19°C / 6°C

[Viac]
Vietor 320º 12kt
Viditeľnosť >10km
Počasie -
Oblaky Scattered Clouds 3000ft
Tlak 1010
Zmeniť No Significant change
Nespracované USCC 281200Z 32006MPS 9999 SCT030CB 19/06 Q1010 R27/000060 NOSIG RMK QFE737

VFR

19°C / 5°C

[Viac]
Vietor 300º 16kt
Viditeľnosť >10km
Počasie -
Oblaky Scattered Clouds 3000ft
Tlak 1010
Zmeniť No Significant change. Runway 27: Wet or puddles, 51-100% contamination with <1mm, friction coefficient 0.50.
Nespracované USCC 281130Z 30008MPS 9999 SCT030CB 19/05 Q1010 R27/290050 NOSIG RMK QFE738

VFR

19°C / 6°C

[Viac]
Vietor 300º 12kt Gust 21kt
Viditeľnosť >10km
Počasie -
Oblaky Scattered Clouds 3000ft
Tlak 1010
Zmeniť No Significant change. Runway 27: Wet or puddles, 51-100% contamination with <1mm, friction coefficient 0.50.
Nespracované USCC 281100Z 30006G11MPS 9999 SCT030CB 19/06 Q1010 R27/290050 NOSIG RMK QFE738

VFR

16°C / 8°C

[Viac]
Vietor 290º variable 250º to 330º 8kt
Viditeľnosť >10km
Počasie -
Oblaky Scattered Clouds 3000ft
Tlak 1010
Zmeniť No Significant change. Runway 27: Wet or puddles, 51-100% contamination with <1mm, friction coefficient 0.50.
Nespracované USCC 281030Z 29004MPS 250V330 9999 SCT030CB 16/08 Q1010 R27/290050 NOSIG RMK QFE738

Správy TAF pre lokalitu 55.31°S 61.5°V (USCC)

From till


From till Wind 270º 6kt. Gust 16kt. Visibility 6000m. Scattered Clouds 3000ft.
Temporarly from till Wind 240º 6kt. Gust 16kt.
Temporarly from till Wind 300º 6kt. Gust 25kt.
From till Wind 280º 6kt. Gust 25kt. Visibility 10km or more. Scattered Clouds 3000ft.

Nespracované: TAF USCC 281958Z 2821/2921 27003G08MPS 6000 SCT030 TEMPO 2821/2904 24003G08MPS FM290400 28003G13MPS 9999 SCT030 TEMPO 2904/2915 30003G13MPS

Aktuálne satelitné snímky a snímky zrážok pre lokalitu 55.31°S 61.5°V

Značka polohy je umiestnená na55.31°S 61.5°V. [Viac]

Satelitné snímky zhotovované v reálnom čase využívajú viditeľné svetlo počas dňa a infračervené žiarenie počas noci. Vzhľadom na to, že infračervené žiarenie zisťuje teplotné rozdiely, snímka v noci nie je tmavá. Nízke oblaky a hmlu je, žiaľ, ťažké odlíšiť od prízemných teplôt, preto môžu byť počas noci takmer neviditeľné. Meteosat satelitné snímky pre Európu sú aktualizované v reálnom čase každých 5 minút. Snímky z GOES-16/GOES-17 (Severná a Južná Amerika) a Himawari (Ázia) sú aktualizované každých 10 minút.

Copyright 2021 EUMETSAT / meteoblue. / Copyright 2021 meteoblue

Radar a krátkodobá predpoveď zrážok pre 55.31°S 61.5°V

Mrholenie
Slabý
Mierne
Ťažké
Veľmi ťažké
Krúpy

Značka polohy je umiestnená na 55.31°S 61.5°V. Táto animácia ukazuje zrážky pozorované radarom za poslednú hodinu a tiež 1h predpoveď. Mrholenie alebo slabé sneženie môžu byť pre radar neviditeľné. Intenzita zrážok je určená farebným kódom od svetlomodrej po tmavofialovú.